This is the latest recevied weather packets stored in our database for station/object DO8TBO-15. If no packets are shown the sender has not sent any weather packets the latest 10 day(s).
| Time | Temp. | Humidity | Pressure | Rain* | Wind** | Luminosity | Snow |
|---|---|---|---|---|---|---|---|
| 1777573546 | 13.89° C | - | 1027.2 hPa | 0 mm | - | - | - |
| 1777572941 | 15° C | - | 1027.2 hPa | 0 mm | - | - | - |
| 1777572338 | 16.11° C | - | 1027 hPa | 0 mm | - | - | - |
| 1777571735 | 17.22° C | - | 1027 hPa | 0 mm | - | - | - |
| 1777571191 | 17.78° C | - | 1026.9 hPa | 0 mm | - | - | - |
| 1777570557 | 18.33° C | - | 1026.8 hPa | 0 mm | - | - | - |
| 1777569956 | 18.33° C | - | 1026.8 hPa | 0 mm | - | - | - |
| 1777569349 | 18.89° C | - | 1027 hPa | 0 mm | - | - | - |
| 1777568745 | 18.33° C | - | 1027 hPa | 0 mm | - | - | - |
| 1777568141 | 18.89° C | - | 1026.9 hPa | 0 mm | - | - | - |
| 1777567537 | 19.44° C | - | 1027 hPa | 0 mm | - | - | - |
| 1777566933 | 18.89° C | - | 1027 hPa | 0 mm | - | - | - |
| 1777566330 | 20° C | - | 1027 hPa | 0 mm | - | - | - |
| 1777565725 | 19.44° C | - | 1026.9 hPa | 0 mm | - | - | - |
| 1777565122 | 20° C | - | 1027 hPa | 0 mm | - | - | - |
| 1777564518 | 20° C | - | 1027 hPa | 0 mm | - | - | - |
| 1777563975 | 20° C | - | 1027 hPa | 0 mm | - | - | - |
| 1777563370 | 20° C | - | 1027.1 hPa | 0 mm | - | - | - |
| 1777562767 | 20° C | - | 1027.3 hPa | 0 mm | - | - | - |
| 1777562163 | 19.44° C | - | 1027.2 hPa | 0 mm | - | - | - |
| 1777561559 | 19.44° C | - | 1027.4 hPa | 0 mm | - | - | - |
| 1777560956 | 19.44° C | - | 1027.3 hPa | 0 mm | - | - | - |
| 1777560351 | 19.44° C | - | 1027.4 hPa | 0 mm | - | - | - |
| 1777559748 | 18.89° C | - | 1027.5 hPa | 0 mm | - | - | - |
| 1777559144 | 18.89° C | - | 1027.6 hPa | 0 mm | - | - | - |
* Rain latest hour (hover to see other rain measurements)
** Current wind speed in m/s (hover to see current wind gust speed)